RH
35 39 42 43 44 44 47 49 64 66 59 73 73 61 53 48 50 53 54 48 45 51 60 58 55 54 46 46 47 52 53 58 63 57 58 51 32 29 32 29 33 33 32 34 35 37 38 42 35 28 20 25 58 75 77 78 78 78 76 76 75 73 70 70 67 65 65 63 67 71 74 76 78 81 81 80 79 80 79 78 77 74 73 73 72 69 68 68 69 71 70 70 71 70 70 69 68
36 41 41 42 40 45 57 51 67 72 60 75 68 59 53 41 45 50 54 54 50 50 59 57 56 57 53 53 45 48 50 50 60 59 52 38 29 31 29 30 32 31 32 32 36 41 42 40 33 28 21 23 47 68 75 77 78 77 75 75 75 76 73 72 69 67 68 68 72 76 77 79 80 81 81 79 78 79 79 77 76 75 75 73 70 69 71 70 70 73 73 73 72 72 72 71 72
37 42 40 43 42 47 57 49 68 75 66 79 71 65 52 42 51 56 58 56 54 52 54 50 45 45 45 45 35 40 49 48 48 50 46 32 31 32 28 31 30 31 32 33 37 39 37 35 32 27 21 27 45 61 73 77 78 77 74 75 75 76 76 73 71 70 72 74 76 78 78 79 78 77 78 76 76 77 77 75 74 74 76 74 69 69 72 72 71 73 74 74 73 73 74 73 74
36 40 37 41 48 50 51 52 69 69 66 73 68 67 53 54 65 62 61 55 52 49 45 43 40 41 40 43 41 43 50 48 40 41 42 33 32 31 28 30 30 31 32 33 34 33 32 32 30 28 21 27 43 53 68 77 78 78 75 76 78 77 78 76 74 74 76 77 77 79 78 77 76 74 71 70 69 69 70 72 72 72 75 75 71 72 72 72 69 72 76 76 75 75 76 75 75
33 37 32 34 51 54 49 56 65 61 63 62 58 61 52 60 67 57 54 50 49 47 43 42 44 43 39 47 49 47 51 47 38 36 37 35 30 29 31 30 31 31 32 32 31 30 30 31 29 27 19 22 37 41 57 74 75 76 74 75 80 79 79 78 78 77 77 77 78 78 77 74 72 70 63 62 63 60 61 65 69 71 73 74 74 74 73 74 72 74 78 76 77 76 77 77 77
28 30 28 30 44 46 47 57 64 64 62 53 48 54 55 59 61 55 50 45 47 53 48 44 49 42 36 43 48 47 46 42 37 36 35 38 34 31 32 30 32 32 33 31 31 30 29 31 27 24 17 17 27 27 40 57 64 70 71 74 78 79 80 79 79 78 76 76 77 76 74 68 61 63 56 45 48 46 47 58 67 70 71 73 75 77 76 77 77 77 79 77 76 76 76 77 77
25 29 35 38 42 40 51 62 63 65 58 45 42 53 61 57 55 54 52 47 44 51 49 49 52 39 38 38 41 41 33 32 32 35 34 37 39 34 32 30 33 32 32 31 30 31 30 29 22 20 16 13 17 14 20 31 47 64 71 74 77 79 81 81 81 77 73 73 75 72 66 58 49 49 45 27 27 28 30 49 61 67 71 72 74 78 78 77 77 76 77 75 75 75 74 75 75
23 33 43 46 50 46 54 61 56 58 51 40 42 54 62 55 55 52 53 54 46 50 49 53 52 42 53 45 43 43 27 28 29 31 32 36 39 32 32 31 33 32 32 31 30 31 29 24 18 17 15 13 13 10 11 15 34 58 70 72 72 79 82 80 81 77 71 68 67 63 49 39 33 29 30 21 19 18 22 40 52 62 66 70 73 77 79 76 74 74 74 73 73 74 73 73 71
21 34 43 41 49 50 52 55 49 49 45 42 49 58 60 56 57 53 53 53 47 54 51 53 52 47 60 49 43 44 31 31 28 31 32 33 35 29 31 30 31 31 30 31 30 31 26 20 17 17 15 13 12 10 9 12 26 47 63 66 64 72 80 79 78 74 68 60 48 42 29 19 17 12 14 16 15 14 20 31 43 56 61 68 72 76 80 76 74 72 72 70 70 71 71 72 69
24 35 41 39 45 49 54 53 48 47 41 45 55 56 57 57 57 55 54 53 50 54 50 50 53 48 55 52 46 40 34 35 30 33 33 31 31 28 30 28 30 30 30 31 30 28 23 20 20 21 18 14 13 11 9 10 17 38 56 59 57 61 69 73 71 62 53 44 28 18 14 8 7 5 6 9 8 9 19 26 36 53 58 67 71 73 78 75 73 70 71 69 67 70 70 72 71
29 38 37 40 47 50 56 52 48 48 42 44 52 52 51 54 56 56 55 54 50 51 51 49 52 50 48 51 49 37 32 35 31 32 32 31 30 27 27 27 30 31 30 31 30 26 21 22 24 27 24 16 14 11 9 8 11 34 57 56 53 55 60 64 53 36 25 21 14 7 7 5 4 6 5 6 6 7 17 22 31 48 54 65 71 72 75 74 73 70 70 69 69 73 73 74 72
33 43 35 40 52 50 50 46 45 46 41 41 49 50 47 50 52 54 53 51 47 45 51 46 42 48 45 48 49 37 33 34 30 30 31 31 30 26 24 26 29 30 30 30 29 24 21 24 27 31 30 23 18 14 10 9 10 23 44 45 40 39 42 44 28 13 8 6 5 4 5 4 4 5 4 9 11 10 16 17 19 35 50 65 72 74 77 75 73 71 71 72 75 75 74 75 73
31 37 29 38 53 43 39 38 44 46 41 42 47 48 43 45 50 54 50 47 49 44 48 42 32 38 40 43 46 39 34 31 26 28 30 30 30 27 25 25 27 28 28 29 29 25 22 24 29 32 36 33 27 23 15 10 7 7 18 22 19 16 14 16 9 3 4 3 3 4 4 4 5 4 7 13 21 22 15 10 8 19 45 66 73 76 80 77 72 70 72 75 75 72 72 73 71
30 33 25 35 45 32 32 35 39 44 44 45 45 46 41 39 47 55 48 42 47 41 40 36 27 33 36 36 44 45 35 28 26 26 29 30 30 28 27 27 27 27 27 27 29 27 24 26 31 34 39 41 36 36 31 18 7 1 6 5 4 4 3 4 3 3 3 2 4 3 3 4 4 5 9 11 27 37 15 4 5 14 46 68 73 76 79 75 68 68 72 73 71 70 70 69 68
29 37 26 28 36 28 32 30 29 37 44 45 43 44 37 33 42 48 43 38 43 37 33 31 24 33 37 33 42 46 35 27 26 26 28 30 29 27 28 29 27 26 27 26 25 24 25 29 33 36 40 42 39 42 44 36 18 3 2 2 2 2 2 3 2 3 3 3 3 3 4 4 4 8 11 5 21 39 16 3 7 21 54 69 71 74 72 68 64 66 69 68 68 67 67 67 59
30 41 33 31 38 35 37 33 29 34 40 42 42 41 33 33 39 40 40 40 42 38 33 33 27 29 33 29 32 35 32 31 27 27 28 28 29 28 27 27 26 27 28 27 25 22 24 32 35 37 40 41 38 39 44 45 35 14 3 3 2 2 2 2 3 3 3 3 3 4 4 4 5 7 9 4 12 25 12 7 19 38 60 66 67 68 63 63 62 63 65 65 62 62 65 56 34
35 40 37 40 45 39 35 32 29 33 41 43 39 40 36 34 36 36 38 39 41 41 37 37 30 26 27 26 25 25 29 32 29 28 28 29 29 29 28 27 27 28 28 28 26 24 26 33 37 38 40 41 37 39 42 44 45 28 14 15 8 3 3 2 3 3 3 3 3 4 3 4 5 4 7 5 8 16 13 19 35 48 58 61 62 59 58 58 56 59 61 58 56 60 54 31 13
38 36 33 42 47 37 29 27 27 31 40 45 39 39 38 35 37 34 34 35 37 42 42 39 33 29 26 25 25 26 30 31 30 30 30 30 30 30 31 28 28 28 29 29 29 28 28 33 39 39 39 41 38 39 41 42 45 34 30 34 20 8 6 4 4 3 3 3 3 4 3 4 4 5 6 6 14 25 26 26 33 44 55 57 53 51 50 48 49 55 52 49 51 48 32 15 15
35 34 33 46 45 31 26 27 30 30 36 46 42 39 36 35 39 33 33 40 40 41 41 40 37 35 30 25 27 28 30 30 31 32 32 33 32 32 33 31 30 29 30 30 31 31 30 34 39 39 37 39 39 36 36 38 36 32 39 42 29 19 12 7 5 4 4 3 3 3 4 4 4 5 5 9 21 31 30 25 25 37 48 43 39 37 32 33 43 44 36 38 39 29 21 20 22
33 29 33 49 39 23 23 28 32 31 33 43 44 40 34 34 37 32 35 42 44 43 39 39 39 36 34 29 29 29 31 32 31 32 33 35 33 32 32 32 33 30 30 29 30 33 33 35 37 38 36 37 38 33 31 32 27 32 42 39 32 25 16 11 8 5 5 3 4 3 4 4 4 6 5 11 21 27 28 26 22 29 36 30 26 24 20 26 32 28 24 27 25 22 25 25 23
29 28 37 45 31 22 26 30 34 33 31 34 38 37 33 31 32 32 38 41 42 42 35 38 38 32 32 31 31 30 31 32 31 31 32 34 33 32 31 31 31 29 29 29 30 33 34 35 36 38 37 36 36 31 28 28 27 36 41 36 33 26 19 16 11 9 7 5 5 4 4 4 5 6 5 10 19 27 30 30 26 26 28 24 22 22 24 28 27 26 26 25 24 26 27 24 25
28 34 38 34 26 24 28 33 35 35 33 32 35 36 33 29 27 31 40 40 40 43 38 37 34 28 28 29 30 31 32 33 33 33 32 33 33 32 31 30 30 28 29 32 32 32 33 35 36 38 37 36 35 31 30 28 29 37 37 34 32 27 23 19 16 14 11 10 8 6 5 4 6 6 6 10 17 27 33 34 31 25 21 20 23 27 29 28 28 32 32 31 29 26 25 25 28
26 37 31 23 26 26 27 32 34 35 34 33 34 34 33 29 31 34 36 35 36 44 45 41 39 32 29 28 28 30 31 32 34 34 32 32 32 31 30 29 29 28 30 32 31 31 33 35 37 38 37 36 35 32 31 28 28 35 33 28 27 28 26 21 20 18 16 16 11 10 8 6 8 8 7 8 14 25 33 34 28 21 16 18 27 33 33 30 32 36 36 36 31 25 25 28 31
28 38 34 22 25 26 27 31 33 36 33 32 32 29 32 32 35 35 32 31 33 39 41 41 43 40 38 38 36 35 33 31 30 31 30 30 30 28 27 27 26 26 28 31 32 32 33 35 37 37 37 37 36 34 32 29 31 35 29 24 28 31 28 23 21 20 22 20 15 15 11 8 10 10 7 7 11 18 24 27 21 16 15 22 34 37 35 33 36 38 39 38 30 26 30 34 37
44 44 39 26 23 25 29 31 33 36 32 31 29 27 33 35 33 31 28 27 28 31 33 34 35 35 39 39 39 42 40 36 31 28 29 29 28 28 27 26 26 25 27 30 32 33 33 35 37 37 38 38 37 35 33 32 32 32 28 27 32 33 29 24 20 21 24 21 20 19 13 12 13 12 9 7 8 12 16 19 17 14 16 28 37 36 34 37 40 40 41 38 30 31 37 41 41
50 44 42 33 28 28 27 30 31 33 31 28 27 29 33 31 29 28 25 23 23 25 27 30 30 30 31 31 33 37 38 39 37 31 29 28 28 30 29 27 27 26 26 29 31 33 33 35 37 37 38 38 37 36 35 34 32 30 31 32 33 32 28 24 21 21 22 23 24 19 16 17 17 15 10 7 8 9 13 16 15 14 18 28 36 34 36 41 42 42 42 34 30 37 41 42 41
48 42 45 40 36 31 27 28 30 30 28 28 29 31 32 28 28 29 24 22 24 25 24 25 28 29 28 29 32 33 33 33 33 32 30 30 30 30 30 29 29 27 27 29 30 32 34 36 37 37 37 37 37 37 37 37 35 33 34 34 33 32 28 24 23 22 21 24 24 19 20 20 19 19 12 8 8 9 14 17 16 15 18 25 34 37 40 43 43 43 41 33 35 41 40 40 41
41 35 42 48 43 32 28 28 29 29 27 30 30 30 32 30 30 30 23 21 25 26 26 25 26 27 26 27 29 32 33 29 27 29 30 31 30 30 29 29 29 28 28 28 29 32 34 35 36 37 37 37 37 37 38 38 38 36 35 34 34 33 29 28 27 23 22 25 23 20 23 22 22 21 14 9 9 11 16 17 15 14 16 24 34 40 43 43 44 43 37 32 37 39 39 41 40
36 32 41 57 52 36 31 28 28 29 27 29 29 31 36 36 33 29 23 22 25 26 26 26 25 25 25 26 25 27 30 30 29 28 27 26 26 27 27 27 27 28 28 27 29 31 32 34 35 37 38 39 39 38 38 39 38 37 36 35 34 34 32 30 28 23 23 24 23 23 25 25 24 23 16 11 11 13 15 15 13 12 17 27 37 42 43 43 43 39 33 33 38 41 41 41 40
37 36 39 51 55 53 39 25 28 29 28 29 29 34 35 34 32 26 25 24 24 27 26 25 26 25 24 25 24 24 26 30 32 29 26 24 23 25 24 24 25 26 27 28 30 31 32 33 35 38 39 39 39 39 39 39 39 38 37 36 35 34 33 31 29 26 25 25 24 26 28 27 26 24 19 15 13 13 13 12 11 11 18 32 40 42 42 41 39 36 34 38 42 43 42 42 41
41 45 47 48 47 63 51 26 30 30 30 31 30 40 35 26 27 24 24 24 24 27 26 25 25 24 24 24 24 23 24 26 29 27 26 25 23 23 22 22 23 24 26 28 29 30 32 34 35 38 39 40 40 39 40 39 39 39 38 37 35 34 33 31 29 28 28 27 27 29 30 29 28 25 21 18 15 12 11 10 11 13 21 32 38 39 38 38 38 37 38 43 45 44 43 43 40
44 42 59 65 45 57 53 29 32 29 29 32 30 44 44 29 25 24 24 24 25 26 25 26 25 24 24 23 23 23 23 22 23 23 23 23 23 23 22 21 22 23 25 26 28 31 33 35 36 39 39 40 40 39 39 39 39 40 39 37 35 33 33 31 29 30 30 27 28 31 31 30 28 26 23 21 16 11 11 10 12 16 24 32 34 35 38 41 43 42 42 45 45 44 43 41 39
65 47 54 62 43 50 49 32 37 32 30 34 33 43 44 30 23 23 24 24 25 25 24 24 23 24 23 22 22 21 22 23 23 23 20 20 20 21 21 20 20 22 24 26 28 31 34 36 37 38 39 40 40 40 39 39 40 40 40 38 36 34 32 30 29 31 30 27 29 30 31 31 28 27 24 22 18 12 12 12 14 20 25 30 35 39 43 44 45 44 45 46 44 42 41 40 43
82 69 62 59 49 54 53 42 42 38 34 36 38 44 39 31 27 26 26 25 26 26 24 23 23 23 22 22 21 20 22 23 24 23 20 19 19 19 19 19 21 22 23 26 28 30 32 35 37 37 39 40 40 40 39 40 40 39 39 38 38 36 32 30 30 32 30 28 29 30 31 31 29 28 25 25 21 14 14 14 16 22 28 34 41 44 43 43 44 46 46 44 42 41 41 44 48
70 72 70 68 63 59 57 49 40 39 42 43 46 49 42 35 32 28 25 23 24 25 24 23 23 22 22 22 21 21 21 22 23 22 19 17 17 18 18 19 22 23 24 26 28 30 31 33 36 37 39 40 41 41 40 40 40 38 36 36 37 36 33 31 31 32 30 29 30 30 31 31 29 28 27 27 22 16 17 15 18 26 32 39 43 42 41 44 46 46 45 42 42 42 43 48 49
62 67 68 69 71 66 57 49 46 47 48 54 54 50 44 36 31 27 22 22 23 23 23 23 23 22 23 23 23 23 21 22 22 19 17 18 18 19 20 22 23 24 24 25 28 30 31 33 35 38 39 40 41 41 40 40 39 37 35 34 35 34 32 31 32 32 30 30 29 30 31 30 30 28 28 28 22 18 18 16 22 29 34 40 41 42 43 45 46 45 44 43 43 43 45 48 49
62 68 70 70 73 67 50 43 55 54 48 61 60 48 43 34 30 27 24 26 27 27 26 24 23 22 23 24 27 26 24 27 24 21 22 23 24 23 23 25 24 25 25 26 28 29 30 32 34 37 38 40 41 40 40 40 40 39 37 34 33 32 32 31 32 33 31 29 28 29 30 30 30 29 29 29 21 18 18 19 26 30 34 41 42 44 44 44 45 44 44 43 42 45 47 49 51
63 65 69 68 67 62 47 42 58 57 46 52 49 41 40 33 30 29 28 30 30 30 29 25 24 26 27 27 30 30 29 30 24 25 33 28 25 25 23 24 23 24 26 26 27 28 30 32 33 35 37 40 40 40 40 41 41 41 39 37 34 32 31 31 32 31 30 28 28 29 29 29 29 29 30 27 19 17 18 22 27 27 32 41 44 46 45 44 44 43 43 42 42 47 51 52 52
66 65 66 61 59 61 54 46 54 55 43 38 39 44 43 35 35 33 30 31 31 32 30 27 26 26 31 32 33 32 29 28 23 29 41 34 25 24 22 23 22 23 24 25 26 27 30 32 33 35 38 39 40 41 41 41 42 42 42 41 38 34 31 31 31 29 27 27 29 29 28 29 29 30 31 24 17 17 18 21 24 25 33 42 44 45 45 44 43 42 42 41 44 50 52 53 53
64 57 58 59 58 56 49 44 47 49 47 44 45 51 46 38 35 29 25 26 29 33 30 29 31 31 35 37 35 30 26 26 24 27 38 38 32 27 24 23 23 24 25 26 27 28 30 31 32 34 37 39 40 41 41 42 43 44 44 43 41 38 33 31 30 29 28 28 28 28 28 29 29 31 30 22 16 16 17 21 24 29 38 44 44 43 43 41 41 43 42 41 47 52 53 54 55
61 50 50 56 60 55 46 49 50 47 53 55 50 52 52 43 34 28 24 20 23 29 25 24 32 35 34 32 30 30 29 27 24 22 26 34 34 28 25 25 25 25 25 26 26 28 29 29 30 32 35 38 40 42 42 43 45 45 45 43 41 36 30 29 29 29 30 28 28 28 28 29 30 31 28 21 17 16 18 22 28 34 40 43 43 40 38 39 43 44 41 42 48 53 55 56 57
53 47 48 51 58 59 57 61 56 49 54 52 50 60 65 54 38 31 28 22 22 27 26 25 28 31 29 27 27 28 29 28 25 23 21 25 26 20 20 24 28 28 26 25 26 26 28 28 30 33 35 38 40 42 43 44 45 46 46 45 41 34 28 28 29 29 30 29 29 30 30 30 31 32 28 21 18 17 18 25 32 37 37 38 38 35 37 44 47 44 42 46 49 52 55 57 59
45 46 55 60 63 63 62 63 58 56 56 47 48 63 69 58 42 34 31 28 28 26 26 27 25 26 27 26 27 27 27 29 28 27 26 26 25 23 20 20 24 27 25 24 26 27 29 29 31 33 36 38 40 42 44 44 45 47 47 45 41 34 28 27 26 27 28 29 32 33 32 32 33 33 28 23 21 18 20 28 34 37 35 34 34 33 38 45 46 43 44 47 49 51 55 58 61
44 49 61 64 62 61 61 60 58 63 63 52 54 62 64 63 54 42 34 29 32 32 30 31 27 26 27 25 27 28 27 30 29 28 30 30 30 28 24 21 20 22 23 24 27 28 28 29 31 34 37 38 40 41 43 45 45 46 46 43 39 33 29 26 24 24 26 29 33 35 34 34 34 32 28 27 25 22 25 32 36 37 34 32 33 34 38 43 44 44 45 47 48 50 53 57 60
49 57 64 64 60 63 65 63 64 69 63 57 63 60 57 63 56 43 38 31 30 36 35 34 30 27 27 25 26 28 27 30 30 28 30 34 33 29 24 21 19 18 21 24 24 26 28 29 32 35 38 39 41 41 42 44 44 45 45 42 38 34 30 28 25 22 23 27 32 34 34 34 34 33 33 32 29 26 30 34 37 36 32 30 34 36 39 43 44 44 47 48 47 49 53 58 61
56 60 57 56 58 67 68 64 69 67 58 62 70 58 46 47 39 31 37 34 32 40 38 36 39 36 33 30 27 29 31 35 40 39 40 40 33 26 23 19 15 15 20 23 23 23 26 29 33 37 38 39 41 43 42 43 43 44 44 43 41 39 36 33 30 25 23 24 28 31 33 34 35 38 40 37 31 30 34 36 38 36 30 29 33 37 40 43 44 47 48 47 47 51 55 59 63
53 62 60 51 57 74 74 69 71 56 48 69 76 54 39 43 41 32 30 29 35 41 33 33 44 44 43 43 36 34 32 36 47 50 50 45 28 18 19 17 16 17 20 23 24 24 26 30 34 37 38 40 42 44 44 42 43 43 43 43 43 43 43 41 37 32 27 26 26 29 32 35 39 42 42 38 33 34 37 38 37 35 30 28 32 38 38 39 45 49 49 49 51 55 57 60 64
46 58 61 44 49 68 70 72 73 47 35 60 67 48 41 48 49 34 24 31 42 44 33 29 37 38 45 51 46 43 41 43 51 47 47 47 33 24 24 21 21 21 22 26 26 25 29 33 36 38 39 41 43 44 45 44 43 44 44 45 44 45 47 45 41 35 31 28 27 29 34 37 41 42 40 38 37 38 40 40 39 37 32 29 34 40 36 38 48 50 50 51 54 56 59 61 63
42 54 59 55 61 58 51 56 56 39 31 38 39 36 41 44 40 30 25 31 38 45 47 43 42 40 43 47 48 51 49 44 43 36 36 43 41 39 36 28 26 26 27 29 27 26 30 34 38 40 40 41 43 45 46 45 44 45 45 47 47 47 48 45 38 34 31 29 28 30 34 36 38 39 39 38 38 38 40 41 41 40 35 30 36 40 37 40 50 52 51 53 55 58 59 61 63
42 50 51 64 71 50 42 51 46 40 38 29 24 37 49 43 38 34 27 24 29 39 47 52 53 48 40 41 49 53 45 38 37 34 35 38 40 42 38 30 29 29 29 29 27 27 28 33 40 43 42 42 45 47 47 47 46 46 47 48 49 49 48 44 35 29 28 28 29 29 31 33 33 35 37 37 36 36 40 41 40 40 36 32 36 39 38 44 52 53 53 56 59 60 61 63 64
50 48 44 60 65 46 45 52 45 43 45 34 29 43 54 43 34 34 25 22 31 33 39 50 54 50 45 43 45 45 39 36 37 36 36 38 39 38 33 29 29 29 29 29 28 26 26 33 41 45 45 44 46 47 47 48 47 47 49 49 50 49 47 44 37 30 27 27 28 28 29 30 30 34 36 35 34 36 40 41 40 40 37 34 38 41 41 47 54 55 56 60 64 65 65 65 65
55 51 53 62 55 42 49 55 45 42 50 54 44 40 45 36 26 29 28 27 30 27 31 37 34 35 40 36 34 36 36 37 40 39 38 41 42 37 29 28 29 27 29 30 29 28 29 35 42 45 46 46 47 49 49 49 49 49 51 51 51 50 47 45 41 36 31 29 29 30 31 30 30 36 37 33 34 36 38 40 41 42 38 36 41 44 42 47 54 57 61 66 68 68 69 68 66
42 46 52 57 51 42 53 64 56 45 51 58 47 37 41 38 32 33 32 28 25 23 26 25 22 25 29 29 34 39 40 40 42 41 41 43 43 37 29 28 27 26 30 31 30 30 32 36 41 44 45 45 46 48 50 51 51 52 53 52 52 51 49 47 44 40 37 34 34 34 33 32 34 40 38 32 33 36 38 40 42 43 40 38 43 43 41 46 55 61 67 73 73 71 70 69 69
36 42 50 57 59 53 53 62 63 57 57 54 42 39 42 41 46 44 34 28 24 20 20 18 19 21 20 25 35 39 39 39 41 43 44 45 45 39 31 26 26 27 31 31 28 29 32 36 40 42 43 44 45 47 50 53 54 54 54 53 54 52 50 48 46 43 40 38 37 37 35 35 40 43 38 32 34 37 40 43 44 43 40 38 40 40 42 49 58 64 70 76 77 74 72 71 71
38 40 50 50 51 55 55 60 64 60 60 58 50 47 45 47 60 52 32 28 24 18 19 17 17 18 15 21 30 35 36 38 43 49 49 49 49 42 31 26 26 28 30 29 27 28 31 34 38 40 42 43 45 47 50 53 55 56 55 55 54 53 52 51 49 45 43 41 40 39 39 41 45 44 39 37 38 39 43 45 45 42 38 37 41 42 47 55 62 67 73 78 79 76 74 73 74
55 53 58 51 45 53 57 56 57 56 61 67 60 54 48 51 60 46 26 25 22 20 22 18 15 17 16 18 25 32 35 37 46 51 51 55 54 41 29 25 27 29 30 29 29 31 32 33 36 40 43 44 45 48 50 53 55 56 57 56 55 54 54 53 51 47 45 44 42 41 44 49 51 47 42 41 41 41 43 45 45 42 37 40 47 49 53 62 68 72 76 79 80 79 76 75 75
54 51 51 51 48 52 52 48 49 53 63 68 63 57 44 36 38 30 22 24 23 22 22 17 15 16 14 16 20 28 34 38 47 52 52 56 55 41 27 25 27 29 29 29 31 34 35 35 36 39 44 46 47 49 52 54 55 56 57 57 56 56 55 54 51 48 47 46 44 45 48 53 54 51 47 44 42 42 43 45 46 42 40 45 49 50 56 65 70 73 76 80 82 80 78 76 75
44 43 39 40 43 44 47 52 52 53 57 55 54 55 42 28 26 24 22 23 21 21 21 18 17 15 13 15 17 24 31 36 45 51 50 52 51 40 28 25 27 29 29 30 33 36 37 38 39 41 44 47 48 50 53 55 56 57 57 57 57 57 56 55 52 49 49 48 47 50 52 53 54 55 54 49 44 43 44 46 46 43 44 47 47 49 57 64 69 73 77 80 81 81 80 78 75
Wind_Speed
4 5 6 7 2 3 2 2 2 3 1 2 4 3 4 2 2 4 4 3 1 1 2 0 2 2 2 4 5 5 3 3 5 5 3 5 17 20 16 17 16 14 11 8 7 6 3 0 4 5 3 4 5 4 4 4 3 3 3 3 3 3 3 4 4 4 4 5 5 5 5 6 7 8 9 10 11 12 13 14 14 14 14 14 14 14 13 13 14 14 15 15 16 16 17 17 17
4 5 6 6 2 3 1 2 2 3 1 4 4 2 4 1 2 4 6 4 3 3 2 3 4 4 3 4 5 3 1 1 3 4 3 13 20 16 17 18 18 14 11 8 8 7 4 2 4 4 2 3 5 4 4 3 3 3 3 3 3 3 3 3 4 4 4 4 4 5 5 6 7 8 9 10 11 12 13 14 14 14 14 14 14 13 13 13 14 14 15 15 15 16 16 17 17
4 3 4 3 3 1 1 2 1 2 2 5 4 3 3 2 2 4 5 5 4 4 4 4 3 2 4 4 3 2 2 1 4 4 4 17 17 15 19 18 17 14 12 11 10 8 5 3 4 3 1 3 4 4 4 4 3 3 3 3 3 3 3 3 4 4 4 4 4 5 5 6 7 8 9 10 11 12 13 13 14 14 14 14 13 13 13 13 13 14 14 15 15 16 16 16 17
3 3 1 0 1 2 2 1 3 3 3 5 3 5 3 4 5 5 5 6 5 4 3 2 1 0 4 3 2 1 3 2 7 8 6 17 18 20 22 18 16 14 14 13 12 9 5 3 4 2 2 3 5 5 5 4 3 3 3 3 3 3 3 3 3 3 3 4 4 4 5 6 7 8 9 10 11 11 12 12 13 14 14 13 13 12 13 13 13 14 14 15 15 16 16 16 17
4 4 4 1 2 1 1 1 2 3 5 4 3 5 4 6 7 6 5 5 4 4 3 3 0 2 3 4 2 1 4 3 9 13 12 18 21 24 22 17 16 14 15 13 11 8 4 3 3 1 3 4 5 5 5 4 4 3 3 3 3 3 2 3 3 3 3 4 4 4 5 6 7 8 8 9 10 10 11 12 12 13 13 13 12 12 12 13 13 14 15 15 16 16 17 17 17
1 2 6 2 1 1 1 2 2 3 5 4 3 3 5 7 8 7 5 3 2 2 2 2 2 2 1 3 2 4 6 6 8 13 18 21 22 24 20 17 15 14 15 13 10 7 4 3 3 2 3 4 5 5 6 5 5 4 3 3 3 3 2 2 3 3 3 3 3 4 5 5 6 7 8 8 9 9 10 10 11 12 12 12 12 13 13 13 14 15 16 16 16 17 17 17 18
3 5 3 1 1 0 2 4 4 5 5 5 4 4 7 7 8 9 7 3 1 2 1 1 2 5 1 3 1 5 10 9 10 15 21 24 24 22 18 16 15 15 15 12 10 7 5 3 2 3 4 5 5 5 6 6 6 5 4 4 3 3 3 3 3 3 3 3 3 3 4 5 5 6 7 7 8 8 8 9 10 11 11 12 12 13 13 14 15 15 16 16 16 16 17 17 17
4 1 1 3 1 1 1 4 5 4 4 3 2 6 9 9 8 9 8 4 2 2 1 2 1 4 5 4 1 5 11 12 14 19 22 24 24 20 18 18 16 17 15 12 9 7 5 3 4 4 5 5 5 6 6 7 7 7 6 5 5 4 4 4 3 3 3 2 2 3 2 3 4 5 6 6 7 7 7 8 9 10 10 11 12 13 13 14 14 15 16 16 16 16 17 17 18
2 3 1 1 1 2 2 4 5 3 3 2 2 4 8 9 8 8 8 4 3 3 4 5 3 3 5 3 3 4 9 15 18 21 22 24 23 19 19 19 18 19 15 13 11 8 6 5 6 5 6 7 7 8 7 8 8 8 7 7 7 6 6 5 4 4 3 2 1 1 2 2 4 4 5 6 6 6 6 7 8 9 10 11 11 12 13 13 14 15 15 16 16 17 17 18 19
1 3 0 0 0 3 4 4 5 3 3 3 3 6 7 7 7 7 8 5 5 4 6 6 3 3 3 3 3 2 11 20 23 23 24 24 21 20 18 17 18 20 17 16 13 10 8 8 8 5 6 7 8 8 8 9 9 9 8 8 8 8 8 6 6 4 3 2 1 1 2 3 4 5 5 5 5 6 6 6 7 8 9 10 11 12 12 13 14 14 15 16 16 17 18 19 19
1 2 1 1 0 3 5 4 5 4 3 3 3 6 7 7 7 5 7 5 6 6 6 5 2 6 3 2 3 3 19 26 25 26 25 23 21 20 18 16 17 19 18 16 14 11 9 10 9 7 6 7 9 9 10 11 11 11 10 10 9 9 9 8 7 5 4 3 2 2 3 3 4 4 4 4 4 5 5 6 7 8 8 9 11 11 12 13 14 15 16 16 17 17 18 19 20
0 3 2 1 3 4 5 5 5 4 2 2 4 5 6 7 7 6 8 5 6 6 6 7 4 5 3 3 4 5 22 27 26 27 25 24 21 19 18 19 18 17 17 16 15 13 11 11 11 10 8 7 9 11 12 12 13 13 12 11 11 10 9 8 7 6 5 3 3 3 3 3 5 4 3 3 4 4 5 6 6 7 8 9 10 11 12 13 14 15 16 17 17 18 18 19 20
1 1 3 1 4 3 5 5 4 3 3 4 5 5 6 7 6 7 8 6 7 7 7 9 4 5 5 3 2 4 16 26 27 26 26 24 22 19 18 20 21 18 17 17 17 15 14 13 12 13 12 10 10 11 12 13 13 13 13 12 11 10 9 8 7 6 5 4 3 3 4 4 4 4 3 3 4 4 4 5 5 5 6 8 10 11 12 13 14 16 16 17 17 18 18 19 19
1 1 3 2 3 2 4 4 2 3 5 4 4 5 7 4 6 7 7 7 8 6 7 12 6 3 5 3 2 2 12 25 27 26 26 24 21 19 18 19 20 20 19 19 19 17 16 16 14 14 15 13 11 12 12 12 13 13 13 12 11 10 9 8 7 6 5 5 4 4 4 4 4 4 3 3 4 3 4 5 5 5 7 9 10 11 12 13 14 15 16 16 16 17 18 18 19
2 1 3 1 4 3 4 4 4 6 5 2 4 6 6 2 5 5 6 8 8 4 5 11 7 2 4 5 4 6 14 23 26 27 27 24 21 19 18 19 19 20 21 21 19 19 18 18 16 15 16 15 13 14 14 13 12 12 12 12 11 10 9 9 8 7 6 5 5 4 4 4 4 3 3 4 3 2 5 6 5 7 8 9 11 12 12 13 14 15 16 15 16 17 18 18 19
2 3 3 1 3 3 3 3 3 5 4 1 3 6 5 3 4 4 5 6 3 4 4 7 7 4 3 5 5 9 19 24 24 27 26 22 20 19 20 19 19 20 21 22 21 20 19 19 18 17 18 17 15 14 15 14 13 12 12 12 12 11 10 9 8 8 7 6 5 5 4 4 4 3 3 5 4 3 6 7 7 8 9 10 11 11 12 13 14 14 14 15 16 17 17 18 20
3 4 2 2 3 2 3 3 3 3 3 2 3 6 6 4 2 3 2 4 1 4 2 3 5 6 3 4 6 8 18 24 24 25 24 21 21 21 22 20 21 23 23 23 23 22 21 21 21 20 20 20 17 15 16 16 15 13 13 12 11 11 10 10 9 8 7 6 5 5 4 4 4 4 4 5 5 5 6 7 8 8 9 10 10 11 11 12 13 14 14 15 16 17 17 20 22
4 3 2 3 3 3 2 1 3 1 2 4 5 5 7 4 3 2 1 1 2 4 5 4 5 7 6 6 11 14 23 27 25 25 22 20 20 20 21 23 24 25 26 25 25 24 23 23 22 22 22 22 18 17 18 18 17 16 15 13 12 11 11 11 10 9 8 7 6 5 5 5 4 4 4 5 5 6 7 7 8 8 8 9 9 10 11 12 13 13 14 16 17 17 19 22 24
2 2 1 4 5 3 1 0 2 2 2 5 5 5 6 5 5 3 2 5 4 6 7 4 7 9 8 6 16 21 26 28 26 25 21 19 20 19 20 23 25 26 27 28 28 27 25 24 24 24 24 23 20 20 20 20 19 18 17 15 13 12 11 11 10 9 9 8 7 7 6 5 4 4 4 4 4 5 7 8 9 8 8 9 10 11 12 12 13 13 15 16 17 19 21 23 24
1 2 1 5 4 2 2 2 1 2 1 3 5 5 5 5 5 3 4 6 6 9 8 6 9 11 8 5 13 19 23 25 25 25 22 22 23 23 22 23 26 28 30 31 31 30 28 27 27 27 26 25 23 21 21 21 20 19 18 17 15 13 12 11 10 10 9 8 8 7 6 5 4 4 4 3 4 6 8 9 9 8 9 11 12 12 12 13 14 15 16 18 19 20 22 23 25
1 2 4 6 2 3 2 2 2 4 1 2 4 5 5 5 5 4 5 5 7 9 9 10 13 13 11 8 10 16 18 19 22 23 22 23 24 25 26 27 29 31 32 32 32 32 31 30 30 30 29 27 25 22 21 21 19 19 19 18 16 14 12 11 11 10 9 9 8 8 6 5 5 4 4 3 4 6 8 10 10 9 10 12 12 12 13 14 16 17 18 19 20 21 22 24 24
0 3 6 5 1 1 3 2 1 4 3 3 3 5 5 4 4 5 7 7 8 6 9 12 13 13 12 11 11 14 14 15 18 20 22 23 25 26 27 28 29 30 31 31 33 35 34 33 33 32 31 29 27 24 22 21 20 21 21 19 18 16 14 12 11 10 10 9 9 7 6 6 6 4 4 4 4 6 8 10 10 10 11 12 12 12 13 15 16 17 18 20 21 22 23 23 23
1 5 3 2 1 2 3 1 2 3 3 3 3 4 4 2 5 5 9 13 10 6 8 10 12 13 14 13 11 12 14 15 16 20 24 25 26 28 28 28 27 28 30 32 34 36 36 35 35 34 33 31 29 25 22 22 22 23 22 20 19 17 16 14 13 11 11 10 9 8 8 8 7 5 5 4 5 6 8 10 10 11 11 11 11 12 14 15 16 17 19 20 22 23 23 21 22
3 4 4 3 3 3 3 2 4 3 3 4 2 2 3 4 5 4 9 14 11 10 9 9 11 12 12 10 10 12 14 16 19 25 29 29 31 33 32 30 29 27 27 31 34 36 37 37 37 36 34 33 30 26 24 23 23 23 22 21 20 18 17 16 14 12 12 12 10 10 10 10 8 7 5 5 5 7 9 10 10 11 11 10 10 12 14 15 15 17 19 20 23 23 22 21 22
2 4 4 3 3 3 4 2 5 5 5 5 1 4 6 7 3 6 15 15 12 12 11 11 13 12 10 10 11 11 11 14 19 25 28 30 32 32 32 32 30 27 26 29 33 36 38 38 38 37 36 34 31 27 25 24 23 23 23 22 21 19 18 17 15 14 14 13 12 12 12 11 10 8 6 6 6 7 9 10 10 10 10 9 10 12 13 14 15 17 19 21 23 22 21 21 23
3 4 4 3 4 4 3 3 5 6 4 2 2 7 8 6 3 8 18 17 13 12 11 12 12 12 13 12 12 11 10 11 13 19 25 30 29 27 30 31 30 29 28 27 32 36 37 38 38 38 36 34 31 28 27 25 24 24 23 22 21 20 19 18 17 16 15 15 14 14 13 13 12 10 8 7 7 8 9 9 10 10 9 9 10 12 12 13 15 17 19 22 22 21 21 22 23
3 3 4 5 6 6 3 5 6 5 4 3 4 9 8 4 1 6 14 13 9 9 12 12 10 12 14 12 12 12 12 14 15 16 18 22 23 26 29 29 31 32 29 28 32 35 36 37 38 37 36 34 31 30 28 26 25 24 23 22 21 21 19 18 18 17 17 16 15 15 15 15 13 12 10 9 8 9 9 9 10 9 9 8 9 11 11 13 16 18 20 21 20 20 22 22 21
3 2 5 7 7 7 6 7 6 3 3 5 6 8 9 2 3 11 17 12 6 7 11 11 11 13 13 13 12 10 11 17 20 16 13 16 20 25 27 29 32 32 31 32 33 34 35 37 38 37 36 33 32 31 29 27 25 24 22 22 21 20 19 18 18 18 18 17 16 16 17 17 15 14 12 10 9 9 10 10 10 9 9 8 8 10 11 14 16 18 20 19 18 19 21 20 21
3 2 3 8 6 6 9 7 5 4 2 4 4 6 8 4 9 16 18 12 6 7 10 10 11 12 12 12 11 9 10 15 17 15 18 22 24 25 27 31 32 31 33 34 34 35 37 37 37 37 35 34 33 31 30 28 26 24 23 22 21 20 19 19 19 19 19 18 18 18 19 18 17 16 14 11 11 10 10 10 10 9 8 7 8 10 12 14 16 19 19 17 17 18 20 20 20
3 1 1 5 7 6 8 4 5 5 4 3 5 4 7 7 13 15 13 11 7 8 11 11 9 9 9 9 9 9 10 11 12 17 24 27 27 27 29 32 32 32 33 32 34 36 37 37 37 36 35 34 33 31 30 28 26 24 23 22 21 21 21 21 21 20 20 19 19 20 20 20 19 18 15 13 12 11 11 11 10 9 7 8 9 11 14 15 17 17 17 16 17 19 19 19 18
2 2 1 2 3 5 8 2 5 3 3 4 6 2 9 10 11 11 11 9 7 9 11 10 9 8 8 8 8 10 9 10 15 22 27 29 29 29 30 33 31 31 31 31 34 36 37 37 36 35 35 34 33 31 30 29 27 25 23 23 22 22 22 22 22 22 22 21 21 22 22 22 20 18 16 14 13 13 12 11 10 9 8 9 12 13 14 15 16 15 15 16 18 18 17 17 19
2 2 3 4 1 5 9 4 6 5 2 4 5 4 9 13 11 9 8 6 4 7 10 9 10 11 10 9 8 9 9 10 16 22 26 29 30 29 31 33 32 30 29 31 33 34 35 36 35 35 34 34 33 31 30 29 27 25 24 24 23 23 23 23 24 24 23 22 23 24 24 22 21 19 17 16 14 14 13 12 11 10 10 11 12 13 14 14 15 15 15 15 16 16 16 18 20
3 3 4 5 4 5 7 7 3 4 2 1 4 5 7 12 12 10 7 7 7 8 12 12 11 11 11 10 9 9 9 9 11 16 23 26 28 30 31 33 33 31 29 30 32 33 34 34 34 34 34 34 33 32 30 28 27 26 25 24 24 24 25 25 25 25 24 24 25 25 24 23 21 20 18 17 16 15 14 13 11 10 10 11 11 12 13 14 14 15 14 14 15 16 18 19 18
4 4 3 4 4 5 5 8 6 1 1 4 5 6 10 15 16 18 13 8 9 11 14 15 12 11 10 8 8 8 7 8 9 12 21 26 28 30 32 33 31 28 27 28 30 33 33 34 34 33 33 33 32 31 30 29 27 25 25 24 25 25 25 26 26 26 25 25 27 26 25 24 23 21 20 19 18 16 15 13 12 11 10 11 12 12 13 14 14 14 14 14 15 16 18 16 15
4 4 4 5 5 5 6 7 6 2 1 5 5 7 13 16 16 20 18 9 9 12 12 14 13 12 10 8 8 8 7 8 8 12 21 26 28 29 30 29 26 24 23 24 27 30 31 32 32 32 32 32 32 31 29 28 27 25 25 24 25 26 26 27 27 27 26 27 27 27 26 25 24 23 21 20 19 17 16 14 13 11 11 12 13 13 13 14 13 13 14 15 15 16 15 13 13
5 5 3 5 7 6 8 8 6 1 2 5 7 10 13 16 18 19 20 13 9 13 11 10 11 9 7 7 8 8 7 7 9 13 18 20 20 21 21 19 19 20 20 21 24 27 29 30 31 32 32 32 31 30 29 29 28 27 26 26 28 29 29 29 29 29 28 28 28 28 27 26 26 24 23 21 20 18 17 15 14 12 13 14 14 14 14 13 13 14 14 14 14 13 13 12 12
4 3 3 6 7 7 8 8 5 2 2 6 7 10 12 16 20 19 19 16 11 12 9 8 9 6 6 6 7 6 6 6 6 5 2 0 4 8 13 16 17 17 17 20 23 25 28 30 31 33 34 33 33 33 33 33 32 31 30 31 32 31 31 30 31 31 30 30 30 29 29 28 27 26 24 23 21 19 17 16 15 14 15 15 15 14 13 13 13 13 13 13 12 11 11 11 11
2 3 5 7 6 7 9 7 5 6 5 7 8 11 13 16 19 17 16 14 12 10 7 8 8 5 4 4 5 4 3 4 8 9 11 13 12 13 15 17 17 17 18 21 22 25 28 30 32 34 34 35 36 36 36 36 37 36 35 35 34 32 32 33 33 33 32 31 31 31 30 29 29 27 26 24 21 20 19 17 16 15 15 16 15 15 14 14 13 12 12 11 11 10 10 10 9
3 4 4 6 5 6 8 4 5 7 5 9 12 10 12 16 16 14 13 10 9 8 5 6 4 5 6 6 7 7 7 7 9 9 9 11 12 13 15 16 16 16 18 21 23 25 28 30 32 34 34 36 38 38 38 39 39 38 36 34 33 32 32 33 33 32 31 32 32 32 31 31 30 29 27 25 22 21 20 18 17 16 16 16 16 15 14 14 13 12 11 11 10 9 9 9 9
3 3 3 6 5 5 6 4 7 7 4 6 10 9 8 11 10 8 10 8 6 7 6 4 4 8 8 8 7 9 9 7 7 6 4 5 9 12 13 14 14 15 17 21 24 26 28 31 33 34 36 37 38 38 39 38 35 33 33 31 29 29 29 30 31 31 32 33 33 32 33 32 31 30 28 25 24 22 20 19 18 17 17 17 17 16 15 14 13 11 11 11 10 9 8 8 9
5 4 3 5 6 4 6 7 10 9 4 2 7 8 6 6 8 8 8 9 8 8 11 11 9 9 9 9 8 7 6 5 6 5 3 3 6 7 7 9 12 15 18 21 24 27 29 31 34 36 36 37 37 37 36 35 31 29 29 26 24 24 24 26 29 31 33 34 34 35 34 34 33 31 29 26 25 23 21 19 18 18 18 18 17 16 15 13 12 12 12 12 11 10 8 8 9
7 5 4 5 6 8 8 9 10 7 5 4 7 6 6 5 8 9 6 8 9 8 10 11 9 9 9 8 5 4 4 3 3 3 2 1 1 3 5 6 11 17 20 23 26 27 29 31 34 35 36 36 36 36 35 34 33 31 30 28 25 24 23 27 32 33 35 36 37 37 36 35 34 32 29 27 26 23 21 20 19 19 19 19 17 16 14 13 13 13 13 12 12 10 9 8 9
7 4 2 4 7 10 10 8 6 3 5 5 4 3 5 6 6 8 5 6 8 7 8 8 6 6 5 4 3 2 1 2 2 2 4 5 5 6 7 8 10 16 20 24 25 27 29 31 32 34 35 36 36 35 35 35 34 33 33 32 31 29 27 29 32 32 34 37 36 36 36 35 34 32 30 28 26 24 22 21 20 20 19 18 17 15 15 14 14 14 13 13 12 11 10 9 9
6 4 3 9 10 11 10 5 1 3 4 7 2 5 3 5 6 8 5 5 7 7 6 4 1 2 2 2 2 2 1 1 2 4 6 6 6 6 7 9 10 13 17 19 20 23 26 28 31 33 33 35 35 35 35 35 35 35 35 34 32 32 31 29 29 30 32 33 33 34 35 35 34 32 30 29 27 25 23 22 22 21 19 18 17 16 15 15 15 14 15 14 13 12 11 11 11
7 6 5 9 9 8 7 2 3 2 3 6 5 2 1 5 7 7 4 4 6 7 6 7 5 4 3 2 3 3 3 3 2 2 4 5 6 7 8 11 17 19 16 15 17 20 22 24 28 31 32 33 34 34 34 35 36 36 35 34 32 32 31 28 27 29 30 30 31 32 33 34 33 32 31 29 27 25 24 24 23 21 19 18 17 16 15 15 16 17 16 15 14 13 12 11 11
8 7 7 8 5 3 2 1 1 2 3 4 7 2 2 5 8 6 4 3 4 7 7 7 6 5 4 4 5 5 5 4 2 2 3 5 7 9 11 15 21 23 19 16 19 21 21 22 24 28 31 33 33 33 33 34 36 35 34 35 34 32 30 28 27 28 30 30 30 31 32 33 33 32 32 29 27 26 25 24 23 21 19 17 17 17 16 16 17 18 18 16 15 15 14 13 11
6 7 6 7 6 4 2 2 3 4 3 6 7 1 3 4 8 5 2 2 5 6 6 6 6 6 6 6 6 6 5 3 4 4 4 6 9 11 13 15 19 22 21 21 22 23 22 21 22 26 29 30 31 31 32 34 35 36 36 37 36 34 32 29 28 29 30 30 31 32 32 33 33 33 32 30 28 27 26 25 23 21 19 17 18 18 17 17 19 19 17 16 15 15 15 14 13
5 5 4 6 6 4 5 4 4 4 4 8 6 3 0 3 6 6 6 6 6 7 6 6 7 7 7 6 6 6 5 3 3 4 5 6 8 10 11 13 17 20 21 22 23 25 25 21 21 24 27 28 29 30 31 33 35 37 37 36 36 35 32 31 30 31 32 32 33 32 31 31 31 32 32 31 30 29 28 26 24 21 19 19 19 18 17 17 19 19 17 17 16 16 15 14 14
7 5 5 6 4 5 5 5 4 2 7 9 4 4 3 5 7 9 10 9 8 8 8 7 7 7 7 7 6 6 4 2 2 3 5 5 5 7 7 11 15 17 19 21 22 26 27 23 20 22 25 27 27 28 30 32 34 37 37 36 35 34 31 31 32 32 33 34 34 33 31 31 31 31 32 33 33 32 30 28 26 23 21 19 19 18 17 18 19 19 19 18 18 17 16 15 15
6 3 3 3 2 5 5 4 4 3 9 13 7 2 3 5 6 9 10 9 9 10 8 7 7 7 7 7 6 5 5 4 5 5 5 5 6 5 6 10 13 15 18 19 22 27 30 26 20 19 23 24 24 26 28 31 34 36 37 36 35 33 32 34 34 33 34 34 34 33 32 32 32 33 33 35 34 33 31 29 26 24 21 19 19 18 17 18 20 20 20 19 19 18 16 15 15
4 3 3 3 3 1 3 3 3 5 8 13 10 2 4 4 5 8 11 11 6 6 7 6 6 7 7 7 5 5 6 6 6 6 5 6 6 5 7 11 13 14 16 19 23 29 31 27 20 17 20 20 21 23 26 30 33 35 35 35 34 33 34 35 35 34 34 34 33 32 32 32 32 33 33 34 34 33 32 29 26 24 21 20 20 19 18 19 21 21 20 19 19 19 17 16 16
4 2 3 1 3 4 3 5 6 5 6 8 6 3 5 4 8 10 8 9 4 4 7 7 8 8 7 7 6 6 7 6 6 5 6 7 6 5 7 10 11 13 15 18 23 28 29 26 20 16 17 18 19 22 25 28 32 33 33 33 34 33 33 33 34 34 34 34 34 33 32 32 32 32 31 33 33 32 32 29 27 25 22 21 21 21 20 21 21 20 20 19 19 19 18 17 17
2 2 1 4 5 6 2 5 4 2 4 5 3 6 5 3 8 10 7 9 8 8 10 8 9 9 7 7 6 6 7 6 6 6 6 6 5 6 7 8 9 11 14 17 22 27 28 25 20 18 18 18 19 21 23 27 29 31 31 32 33 33 33 34 35 35 35 34 33 32 31 31 31 31 31 32 33 32 32 30 29 27 24 23 23 22 21 21 21 20 20 19 19 18 18 17 17
1 2 4 3 0 3 2 2 3 3 4 5 5 11 9 3 5 8 8 9 10 12 13 10 9 9 8 8 6 7 7 6 7 6 6 6 6 6 7 7 7 9 12 17 23 26 27 26 23 22 22 23 23 22 22 23 26 29 31 31 33 34 34 35 35 35 34 32 31 31 30 29 29 30 32 32 32 33 32 31 30 27 25 24 24 22 21 21 20 20 21 20 19 18 18 18 17
2 3 3 1 2 3 2 0 1 3 4 4 8 14 10 3 5 6 6 8 11 15 15 10 10 10 9 9 7 8 8 6 7 6 6 6 6 6 6 4 6 10 13 18 22 23 25 27 26 25 26 27 27 25 22 22 23 27 30 30 32 33 34 34 34 34 33 32 31 30 29 28 29 30 31 32 33 33 33 32 30 27 26 25 24 22 21 20 21 21 22 22 21 20 19 19 18
2 2 3 1 2 4 2 2 3 2 4 4 7 12 8 5 6 4 7 10 12 14 12 9 11 12 10 10 9 8 8 6 6 6 6 6 6 6 3 2 5 8 12 16 19 20 22 24 25 25 26 28 28 27 24 22 22 24 27 29 30 32 33 33 34 33 32 31 30 28 28 29 30 31 32 33 33 34 33 32 30 28 27 26 24 22 21 21 22 22 22 23 22 21 21 20 20
2 3 4 3 2 1 2 2 2 3 3 3 5 8 9 6 2 4 10 13 12 11 10 11 14 16 16 15 12 9 8 7 6 6 7 6 6 6 2 3 4 7 10 14 16 18 20 21 23 24 24 26 28 28 25 22 22 22 25 27 29 31 32 32 32 32 32 30 29 28 28 29 31 33 34 34 34 34 33 32 30 29 27 27 25 23 22 22 23 23 23 23 22 22 22 21 20
3 3 3 4 4 2 4 5 2 2 4 4 4 8 13 9 2 5 10 10 11 14 17 18 18 20 20 18 15 11 8 7 6 6 7 6 7 6 2 5 5 6 9 11 13 15 18 20 22 23 23 25 28 29 26 23 21 21 24 27 29 30 30 31 31 31 31 29 29 29 29 32 34 35 35 35 35 34 33 31 30 29 28 27 26 24 24 24 24 24 24 23 23 23 23 22 21
Wind_Direction
191 171 175 170 124 38 9 74 82 305 159 245 240 235 266 180 143 141 133 167 137 273 224 102 55 63 119 143 160 151 133 166 174 154 205 181 140 140 144 148 158 165 169 186 211 221 212 200 348 3 31 86 95 90 94 91 91 90 83 77 68 65 59 59 54 52 53 48 46 49 51 54 55 54 51 45 40 35 31 27 23 19 16 12 9 7 2 357 354 352 350 348 346 345 343 341 341
172 152 157 176 357 33 273 90 114 281 190 253 264 219 249 71 86 157 173 183 183 206 159 109 83 76 77 92 130 117 37 270 150 146 157 141 138 144 150 157 167 168 171 191 203 195 194 237 334 358 42 104 110 117 111 107 104 99 94 78 74 61 56 58 51 53 54 54 54 60 60 58 59 55 52 46 41 37 31 27 23 20 15 11 8 3 358 354 353 351 348 347 344 343 342 341 341
166 139 141 195 306 53 172 49 151 227 202 238 268 257 220 116 141 175 180 184 186 156 99 92 77 87 67 54 118 139 212 270 127 121 125 145 144 152 159 166 171 167 168 184 195 198 215 261 322 347 93 125 125 131 126 123 117 114 109 89 87 66 62 63 53 60 59 62 62 62 64 60 59 54 51 46 42 37 31 26 22 19 15 11 6 358 355 353 350 349 347 346 344 343 343 342 341
156 137 123 217 350 30 68 97 181 179 233 238 259 263 202 149 160 165 170 176 177 122 89 103 57 281 102 135 204 109 181 202 158 140 148 169 164 162 165 170 172 167 169 184 196 206 226 257 307 331 152 146 140 140 136 132 129 127 120 106 100 82 73 71 60 69 70 69 68 65 64 59 57 53 48 44 39 35 30 26 23 19 14 10 3 357 353 351 348 347 347 346 346 346 344 343 342
168 178 247 211 86 347 105 186 188 179 229 216 240 255 183 157 156 158 164 173 168 130 152 139 148 286 91 180 208 155 187 162 167 153 156 179 171 166 170 172 173 168 173 187 196 209 219 243 302 237 178 154 148 148 145 142 141 140 128 120 110 99 86 85 77 77 81 75 72 67 61 59 55 50 44 41 36 31 27 24 23 18 12 7 1 356 352 351 349 348 349 349 349 348 346 345 344
207 291 274 218 149 200 123 275 249 238 237 187 216 236 166 157 155 151 143 149 143 129 166 138 169 175 38 235 180 187 183 136 157 161 160 172 174 171 171 170 171 169 174 187 195 208 205 239 291 200 180 154 153 152 151 154 151 148 137 133 127 118 110 109 104 95 95 84 77 69 60 57 50 47 41 33 29 23 20 21 20 16 10 5 0 357 354 353 352 352 351 350 349 348 346 345 344
334 339 311 153 322 24 138 259 243 257 245 186 188 185 166 162 158 140 137 139 69 336 94 188 167 120 249 235 157 193 176 153 150 164 168 168 173 173 169 169 170 169 177 192 199 203 202 240 246 188 172 153 154 157 157 160 157 155 150 149 148 141 141 140 129 124 114 99 86 73 62 52 44 43 33 19 16 10 10 15 17 14 9 3 359 356 355 354 353 352 350 349 347 346 346 344 344
319 282 42 108 318 339 186 256 246 240 235 214 178 171 170 164 158 142 157 166 161 224 154 242 172 100 264 224 189 211 168 162 157 164 168 163 168 168 165 170 172 171 181 197 200 205 207 216 199 180 165 157 157 161 163 164 162 162 161 164 161 157 158 157 152 147 135 125 104 79 52 40 31 26 21 11 7 3 3 9 13 11 7 3 359 356 354 353 352 350 349 347 346 345 345 344 343
306 197 349 100 212 294 268 263 257 251 249 258 72 140 162 159 155 145 163 178 156 186 191 209 164 129 259 207 202 242 162 159 157 161 165 165 169 167 168 174 176 175 183 197 202 214 208 198 194 180 170 164 159 162 164 167 167 167 169 173 172 168 167 169 166 163 158 155 146 86 10 8 5 2 6 5 2 1 2 5 11 9 4 1 357 354 352 351 349 349 347 346 345 345 344 344 344
19 191 215 140 179 283 286 269 257 264 228 196 139 147 157 160 155 150 160 181 167 169 205 189 155 193 243 184 199 263 166 157 153 157 166 171 171 170 173 176 181 181 187 198 206 216 203 199 200 194 183 168 162 164 165 169 171 172 175 178 179 176 175 179 178 185 185 191 230 270 330 338 344 349 354 358 357 357 3 7 11 7 1 358 355 352 349 349 347 346 346 345 344 344 344 344 343
10 303 111 155 316 253 262 263 263 255 212 150 151 171 166 160 147 161 172 186 175 168 196 165 175 224 243 222 241 198 166 161 161 165 171 176 175 175 176 174 184 190 194 202 209 216 207 203 207 213 205 180 173 169 168 172 173 176 181 182 182 182 181 184 189 203 206 215 246 278 312 324 334 342 349 354 354 356 9 10 10 3 358 355 352 349 347 346 345 345 345 344 343 343 344 342 342
20 313 57 206 226 222 237 248 267 254 241 170 183 200 171 156 150 177 188 189 182 177 186 175 186 183 183 259 259 176 163 171 179 177 178 182 183 180 178 176 181 192 199 206 211 217 217 211 212 219 220 203 185 177 176 176 176 176 181 184 185 186 186 191 201 210 214 229 248 275 300 316 329 334 344 354 357 4 14 8 6 360 354 351 346 345 344 344 344 344 343 343 342 341 341 340 340
153 288 70 256 224 220 260 266 251 203 256 223 190 199 163 159 178 183 184 194 186 184 199 193 173 146 184 257 240 166 171 185 186 180 183 185 187 183 182 180 180 189 198 206 211 217 221 217 217 221 225 223 201 187 184 181 181 178 178 183 185 190 192 199 209 213 220 233 247 271 293 310 323 327 341 6 11 6 8 3 1 356 351 345 341 341 341 342 343 342 341 340 340 340 339 338 337
179 202 114 247 267 270 261 274 244 204 265 237 160 168 162 175 199 172 166 197 208 197 197 192 161 127 213 249 242 208 194 192 183 180 183 184 186 183 186 187 187 194 199 206 211 214 216 217 219 222 225 228 218 200 194 189 186 181 179 182 184 191 197 204 213 218 229 236 248 265 284 305 316 319 335 10 16 350 347 352 352 357 352 342 337 338 339 341 341 339 339 338 338 337 336 336 335
163 173 105 216 295 306 253 258 252 233 258 222 157 158 159 197 174 168 180 190 232 239 168 187 176 136 208 210 224 222 204 191 179 180 180 181 186 182 187 193 199 201 202 207 212 215 216 218 220 224 225 227 229 215 209 201 193 191 185 183 184 190 198 206 215 221 234 240 248 260 277 297 307 308 325 351 358 319 327 340 352 1 350 338 334 337 337 337 338 338 337 336 336 334 335 335 333
131 100 68 315 269 282 268 287 295 249 260 229 170 143 145 248 167 179 210 163 243 277 148 189 196 196 208 187 209 222 206 190 177 179 177 179 185 184 188 194 204 205 208 211 212 217 216 218 220 225 225 226 231 222 220 215 206 203 195 190 187 190 198 208 217 225 238 245 248 257 272 290 298 301 323 331 322 300 322 344 357 356 341 333 335 335 335 335 335 336 336 335 334 334 335 332 331
67 75 82 282 259 252 273 317 333 257 258 250 190 146 148 248 241 182 214 124 174 267 230 230 221 219 233 164 181 203 190 180 173 173 171 176 182 184 190 196 201 204 210 216 218 219 214 214 219 224 223 224 228 222 223 222 216 215 207 199 194 195 199 208 220 228 241 250 252 257 270 286 298 310 320 313 311 318 335 351 351 341 335 334 335 334 332 331 333 334 333 333 333 334 332 329 333
56 87 168 260 250 246 244 275 286 255 241 229 211 181 159 199 230 182 309 291 230 263 269 271 274 256 247 164 147 152 162 167 168 169 172 177 181 185 193 199 200 204 210 216 223 222 214 212 215 221 221 221 222 219 222 222 219 220 213 206 206 205 203 211 223 231 241 250 251 253 267 282 299 310 306 301 321 332 330 335 332 330 333 333 332 330 326 326 331 331 330 331 332 331 330 332 335
93 158 224 245 226 238 230 177 293 348 270 228 224 204 181 196 199 157 222 255 242 247 260 260 275 274 261 173 143 148 156 163 169 173 179 183 187 191 196 201 203 208 211 215 221 222 218 212 211 215 216 218 219 218 219 220 221 217 210 211 216 214 212 217 225 234 239 243 245 247 257 275 289 291 293 306 321 310 305 313 320 328 326 323 325 323 321 326 329 326 328 330 330 331 331 332 333
173 163 238 245 234 274 328 43 357 312 250 205 238 214 202 214 182 152 211 239 235 228 236 226 244 252 249 199 157 159 161 169 177 180 186 192 196 199 201 204 207 212 215 218 220 220 218 212 209 211 215 217 219 219 216 217 218 211 209 214 218 218 220 224 229 236 239 240 239 240 247 262 272 275 291 303 293 287 294 305 317 323 315 315 320 321 324 328 326 325 328 330 331 332 330 329 330
234 149 199 237 266 314 306 53 345 303 306 222 225 182 213 230 182 175 181 224 245 230 224 212 224 233 229 216 181 175 174 179 186 188 193 198 202 205 208 210 213 219 222 221 218 216 216 213 211 212 215 217 218 218 215 215 211 205 211 216 217 221 224 227 230 234 239 241 239 236 241 256 260 266 285 280 272 280 289 299 311 314 309 313 319 324 326 325 324 325 327 327 329 329 326 327 329
270 238 204 213 123 270 258 121 317 298 311 291 178 166 226 224 202 197 173 208 238 219 215 214 221 229 222 215 197 187 187 191 193 197 201 202 206 210 213 216 219 224 225 219 216 216 214 213 213 212 213 215 216 217 216 214 208 205 211 215 217 220 224 227 227 231 236 239 241 236 239 253 253 257 270 261 259 271 281 292 302 308 310 316 322 325 324 322 322 321 321 321 324 325 325 326 329
208 276 242 223 171 222 252 167 278 294 326 312 165 201 249 216 252 230 200 226 235 210 205 211 218 224 223 219 207 197 198 200 201 203 204 207 209 211 214 217 218 221 222 219 217 215 212 211 212 211 212 214 215 216 215 213 210 210 213 217 219 220 221 222 222 226 229 235 240 237 243 249 245 251 261 259 259 264 275 285 295 306 312 318 324 321 317 318 316 315 314 314 318 322 324 326 329
170 265 294 275 238 222 215 198 250 254 255 249 192 284 274 222 257 265 236 241 240 236 226 220 225 225 219 216 215 209 204 205 210 211 209 211 214 215 216 218 220 221 220 217 215 212 210 209 210 211 213 215 215 214 212 212 212 214 215 217 220 220 220 220 221 221 222 231 237 238 245 246 242 249 257 263 262 260 269 280 292 304 310 316 317 310 309 311 310 309 309 311 316 321 324 327 328
167 233 283 272 254 227 197 215 242 236 242 245 273 288 249 229 247 278 263 255 242 237 233 232 236 238 229 221 224 219 211 208 210 214 215 217 219 219 220 221 222 222 220 215 211 210 209 208 208 211 214 216 217 214 213 215 215 215 215 216 219 220 219 220 219 217 221 228 231 239 245 243 244 246 253 263 259 259 267 276 288 299 304 305 302 300 305 308 308 307 305 309 315 320 324 326 325
216 220 270 287 288 272 226 244 239 225 236 241 280 273 258 250 275 274 262 255 248 238 233 234 231 237 238 231 230 227 225 219 209 210 214 219 221 220 222 222 221 221 221 216 210 209 208 207 209 212 215 217 217 216 216 216 216 216 216 218 219 219 220 220 217 217 222 225 229 237 241 241 243 243 251 258 255 260 264 271 282 292 295 293 292 297 305 305 304 302 303 310 316 321 322 321 319
244 239 279 281 273 282 242 233 243 233 247 221 230 267 273 273 261 269 264 252 238 233 238 237 227 232 234 229 229 227 228 231 225 213 212 217 217 219 223 222 220 222 220 214 211 210 207 207 211 214 216 218 217 217 218 218 218 219 219 220 221 221 221 219 215 217 221 224 230 234 236 240 241 241 250 253 252 258 258 266 277 282 287 288 290 297 303 301 298 297 301 309 315 317 316 313 312
288 305 323 297 282 286 249 234 248 237 270 219 200 263 277 273 213 243 258 257 216 219 242 239 229 232 233 229 227 224 225 231 230 222 215 218 216 218 222 222 221 221 219 217 215 211 209 210 212 214 216 218 219 220 220 220 221 221 221 221 222 223 222 219 217 220 222 224 228 229 232 237 238 241 249 249 248 252 254 262 271 276 282 285 290 294 296 292 290 293 299 307 310 310 308 306 307
314 16 339 303 332 306 251 234 219 170 233 203 160 286 278 213 225 241 252 261 242 232 249 245 234 234 233 232 230 227 228 229 227 222 224 226 224 220 221 226 224 220 220 221 217 212 212 213 213 214 216 218 221 222 222 223 224 223 222 223 224 224 222 221 222 222 223 223 225 227 230 233 237 242 246 244 243 247 252 259 265 270 275 279 285 285 283 282 284 290 300 307 307 305 304 304 305
312 343 191 300 354 315 260 220 174 168 213 173 107 310 279 231 231 246 260 266 256 241 248 248 240 239 237 236 234 233 230 226 222 222 227 229 229 224 225 230 228 224 222 217 215 214 213 213 213 214 216 218 221 223 224 224 225 224 224 225 226 224 222 224 225 224 223 222 223 226 229 232 236 241 242 240 240 245 250 254 260 264 262 263 268 270 272 276 283 292 301 305 303 302 302 302 304
317 313 224 324 354 292 296 268 154 167 230 134 101 256 272 270 253 255 270 268 242 234 248 250 246 245 241 238 233 234 230 221 221 223 226 229 229 226 227 232 231 227 221 214 215 215 212 212 213 214 216 219 221 223 225 226 226 226 226 226 225 225 224 225 225 223 222 221 221 224 228 232 235 240 241 239 240 245 248 251 254 255 250 249 255 261 268 275 283 292 297 299 299 297 297 300 304
12 0 311 328 327 280 308 300 167 183 258 113 125 240 270 279 274 258 272 302 274 249 259 254 246 242 238 239 235 234 234 227 227 227 228 229 229 226 226 231 231 225 219 215 214 211 208 210 212 214 216 218 221 224 226 227 227 227 227 227 226 225 224 225 224 223 221 220 220 223 227 230 235 238 239 239 243 246 247 249 249 246 242 244 252 259 267 276 282 288 290 292 293 293 298 303 304
356 38 301 301 320 314 319 306 237 198 289 133 201 251 275 281 289 281 288 321 303 276 274 264 249 242 236 237 236 235 238 235 235 234 231 229 228 228 228 231 230 224 220 214 209 205 206 209 212 215 218 220 222 224 226 227 228 227 227 227 226 226 225 225 224 222 222 220 219 223 226 229 233 235 238 240 244 247 246 245 245 242 240 245 251 259 266 272 277 282 284 283 284 292 301 303 302
330 20 332 289 299 318 318 308 306 273 267 256 238 252 264 276 293 296 296 297 279 270 271 268 259 248 242 239 242 240 232 230 232 233 232 231 230 230 229 230 228 221 216 211 207 208 209 211 213 217 220 222 223 224 225 227 228 228 228 227 226 226 225 225 223 223 221 219 219 223 225 227 230 232 236 240 243 246 244 243 242 238 238 243 249 256 262 267 272 275 277 276 281 292 298 299 299
289 312 324 309 309 308 292 292 304 325 286 275 274 270 270 280 289 293 297 297 279 271 265 265 263 257 250 247 248 245 236 231 231 230 229 229 231 230 228 227 221 211 205 203 206 208 209 211 214 218 221 222 222 223 223 224 225 225 224 223 224 224 223 222 222 222 219 217 219 222 223 224 225 229 234 237 242 244 241 241 239 235 236 240 246 252 256 261 266 266 271 277 285 290 290 290 297
250 269 276 290 301 294 276 273 276 285 307 277 269 273 284 295 297 297 301 304 292 277 271 267 268 269 260 251 250 244 236 238 242 242 239 237 234 226 217 207 197 192 192 196 201 204 208 212 214 217 220 221 220 219 218 218 216 216 217 216 218 219 219 219 220 220 217 216 219 219 220 221 223 227 231 234 240 241 239 239 235 233 234 238 243 247 252 257 260 264 271 281 286 285 280 284 297
252 291 305 290 290 290 282 279 289 351 324 262 255 280 296 300 298 299 302 306 300 284 280 281 282 288 280 271 267 248 234 254 281 288 288 229 186 174 166 162 163 172 184 193 198 204 212 215 216 218 220 218 217 216 214 213 211 210 211 212 215 216 215 215 217 218 217 217 218 218 219 221 223 226 228 233 237 238 237 235 232 231 232 235 240 243 248 253 257 265 272 279 279 277 278 285 298
315 320 320 313 293 278 281 280 313 15 359 291 285 303 305 298 297 300 304 308 303 294 288 285 289 301 312 339 338 311 288 345 11 27 57 80 103 126 141 151 162 174 185 197 205 212 217 218 221 222 220 218 219 219 216 214 215 214 213 213 214 214 214 214 215 217 218 218 217 219 220 221 223 224 227 231 235 235 233 231 230 231 231 232 237 240 245 249 254 262 267 270 268 268 277 286 296
348 330 330 320 296 287 290 291 3 16 358 303 307 318 301 290 291 295 303 306 298 299 281 260 292 357 8 27 23 26 40 38 39 37 50 81 111 135 153 168 182 192 196 206 216 219 218 221 226 226 223 221 221 220 219 219 219 218 217 218 217 215 216 217 218 219 218 216 216 219 221 221 221 223 226 230 231 230 230 229 230 230 228 230 234 237 240 246 252 256 258 260 258 261 273 280 285
351 326 328 307 311 339 309 326 1 338 278 278 307 316 292 290 300 301 312 329 326 333 341 326 18 27 23 38 43 55 65 58 59 63 65 99 134 155 173 187 198 204 207 213 219 221 222 225 229 230 228 226 223 221 220 221 221 220 220 223 224 222 221 219 218 219 217 214 215 217 219 221 221 222 225 228 228 226 226 227 228 226 226 229 232 235 239 244 248 249 250 254 253 252 261 271 277
323 290 275 283 303 311 276 307 333 316 287 310 341 332 300 308 330 323 330 356 0 1 8 10 27 39 42 53 54 61 75 74 70 73 87 143 165 179 201 212 214 217 222 227 229 228 229 233 234 233 231 228 225 222 220 219 218 217 217 219 223 223 221 215 211 213 212 211 213 214 217 219 220 222 225 226 225 223 223 224 224 224 225 229 231 234 239 241 243 244 248 249 246 244 248 261 272
324 286 237 253 297 299 292 326 340 338 333 358 34 4 295 308 329 317 330 1 355 1 24 27 37 47 51 60 57 48 58 70 81 78 51 40 14 325 299 259 233 231 238 244 245 242 240 241 240 235 232 230 228 224 220 217 215 213 211 209 209 209 209 208 208 208 206 207 211 212 214 217 219 221 223 225 223 220 219 220 221 223 226 229 230 233 235 235 238 242 244 242 238 239 242 248 260
327 276 251 293 314 311 314 348 356 345 302 297 59 104 267 315 321 302 332 5 343 356 29 34 42 52 61 81 90 82 52 17 24 9 353 347 339 331 318 297 259 252 262 263 257 254 252 251 247 239 234 231 230 225 220 216 214 212 211 209 207 205 205 208 209 208 206 207 209 208 210 215 218 221 222 222 221 218 217 217 220 224 227 229 229 229 229 230 235 238 238 236 236 235 234 236 247
297 260 355 328 318 311 316 355 320 241 286 301 358 135 237 309 288 286 334 18 342 346 360 346 3 104 117 151 175 164 161 84 31 351 338 329 320 319 316 316 309 301 299 289 277 271 267 264 257 247 238 233 231 227 220 216 214 213 212 211 211 210 210 210 207 205 206 207 206 206 209 213 217 220 221 219 218 217 215 214 218 222 225 227 227 227 227 228 231 234 233 234 237 237 234 237 241
271 270 328 309 297 292 292 303 243 261 6 319 319 85 302 288 277 297 356 30 336 317 298 284 256 215 198 220 230 216 222 214 189 299 307 305 311 325 330 334 338 337 327 310 305 301 291 281 266 251 242 236 232 227 222 218 217 216 213 211 213 214 214 214 210 206 207 206 205 207 209 212 215 217 219 218 217 216 214 214 217 220 223 224 224 225 225 225 229 232 233 234 237 236 230 231 233
275 299 318 301 300 297 259 153 184 12 39 276 283 6 43 297 290 307 2 27 301 280 277 276 267 261 254 260 262 252 254 257 256 297 301 308 321 336 342 342 339 336 328 315 318 320 311 296 272 253 245 239 233 228 223 220 218 217 215 214 216 217 217 217 215 212 210 209 207 208 209 211 212 212 214 216 217 216 214 214 216 218 221 221 222 224 222 223 228 232 236 240 239 233 227 227 231
307 347 341 324 342 22 38 71 81 44 352 256 256 208 95 311 291 278 281 260 235 244 275 288 293 298 281 274 277 269 276 311 341 338 320 320 333 337 336 334 332 332 329 321 321 327 322 303 278 259 250 241 234 229 224 221 220 218 218 219 218 219 219 217 215 214 211 209 207 208 208 209 209 209 211 213 215 216 214 214 216 218 220 220 221 222 222 225 229 234 238 238 234 231 228 227 229
12 13 6 348 343 8 14 2 39 41 303 262 263 321 3 240 268 269 271 271 241 222 233 258 273 281 278 276 274 275 291 329 348 336 310 309 326 325 321 327 330 332 334 335 337 340 333 313 285 264 253 245 237 231 226 223 222 220 221 222 221 222 221 218 215 213 208 205 205 205 205 205 206 207 209 211 212 213 213 213 216 216 217 219 220 221 224 227 230 233 233 229 228 228 227 226 227
19 13 30 24 355 357 356 338 1 354 279 267 277 343 299 240 254 268 277 276 248 230 219 212 232 252 266 271 273 286 301 297 272 277 282 286 294 293 305 325 329 334 343 349 351 351 346 329 297 269 258 251 240 232 228 226 225 224 224 223 224 223 221 219 216 212 206 203 202 201 201 201 202 204 207 209 210 211 212 212 213 214 217 219 220 222 225 228 229 229 227 227 228 228 225 226 229
353 359 51 66 52 2 326 303 329 305 284 288 295 307 268 282 272 259 280 278 234 228 230 207 213 231 244 255 267 280 271 246 240 254 276 281 276 280 308 325 332 343 352 356 358 358 354 340 313 280 267 259 245 237 233 231 231 230 228 225 224 223 220 219 216 212 206 203 203 203 203 203 203 206 209 210 211 211 212 214 214 215 217 219 221 223 225 227 227 228 229 229 229 226 224 226 230
292 217 131 117 133 113 265 255 286 286 287 297 312 308 226 284 286 259 291 298 246 228 254 249 251 249 245 263 267 250 251 251 251 265 283 280 278 292 321 332 344 355 357 1 5 2 356 343 324 296 281 270 258 249 242 239 238 235 231 227 225 224 222 220 218 216 212 209 209 209 209 209 209 211 213 213 212 212 212 214 214 216 218 220 221 221 223 225 227 230 231 230 229 227 224 226 231
273 176 88 70 177 168 218 229 231 262 289 289 304 280 227 257 285 277 299 319 315 288 288 284 281 275 274 289 274 234 242 256 258 267 277 281 287 296 321 344 360 4 0 6 10 5 357 346 332 315 302 290 277 265 256 252 248 240 233 229 227 226 224 221 221 221 219 216 215 214 214 214 213 214 215 214 213 213 213 213 213 215 218 219 219 220 223 225 228 231 230 231 232 227 223 225 230
323 10 332 247 192 154 189 270 264 297 295 279 284 283 287 337 302 294 324 333 323 310 300 287 285 296 304 296 269 237 242 249 252 252 257 270 277 287 323 5 17 10 3 8 13 7 358 350 339 327 317 307 296 285 274 266 255 244 237 232 229 227 224 223 223 223 222 221 219 218 217 216 215 216 216 215 215 214 214 214 212 213 215 217 218 220 224 226 228 229 228 230 230 224 224 228 230
79 301 262 263 104 120 135 280 326 345 281 278 294 282 288 339 296 306 332 321 312 310 307 301 301 313 310 290 260 240 246 253 263 264 264 272 265 282 328 14 30 18 9 12 15 7 358 354 347 336 325 316 309 300 290 279 264 249 242 235 230 228 226 225 226 225 224 221 220 219 217 215 216 218 218 217 217 215 215 213 212 212 214 216 219 220 222 224 226 228 227 228 228 225 228 229 228
169 243 259 357 353 306 337 116 285 310 285 288 294 285 281 228 244 288 306 301 307 308 306 308 311 313 307 299 278 259 266 272 275 276 275 276 265 279 321 13 35 25 17 14 13 8 2 358 351 344 336 328 318 307 299 292 276 258 247 239 233 230 228 227 228 227 225 222 222 219 215 213 216 217 217 217 216 214 212 211 212 213 214 216 219 219 220 222 224 225 226 227 228 227 229 229 229
349 324 310 356 191 217 245 217 190 237 269 281 291 292 287 218 206 251 284 296 307 305 304 311 313 313 311 307 292 269 266 266 265 268 264 262 261 275 305 42 41 27 20 14 8 4 4 360 352 347 342 338 329 315 303 295 286 267 251 242 236 231 229 229 229 227 226 224 223 220 215 214 214 214 214 214 213 212 211 211 212 214 214 215 216 217 217 219 221 223 225 227 228 227 228 229 231
328 330 310 295 277 248 273 263 178 184 227 253 287 292 281 252 214 312 303 302 305 307 317 322 322 323 320 314 302 277 262 260 258 254 254 255 259 269 293 72 46 28 19 11 3 357 356 355 353 347 341 340 337 325 309 296 289 273 254 244 238 234 231 230 229 227 227 226 224 221 217 216 215 214 214 213 213 213 213 213 214 214 213 212 213 214 215 217 220 223 226 228 228 229 229 230 232
197 232 254 253 262 311 310 289 267 190 195 213 259 279 278 281 326 305 297 311 327 337 340 332 325 320 315 309 300 283 266 261 259 257 265 262 255 263 356 45 31 22 17 7 357 350 347 346 347 345 341 340 339 332 317 299 290 276 259 249 242 236 232 229 228 227 227 226 224 222 218 218 218 216 215 215 214 214 214 214 215 214 213 212 213 213 213 215 218 221 224 227 229 229 230 231 234